Saint Francis, KS

6:39 PM CST on January 21, 2017 (GMT -0600)
Cheyenne County Municipal

Weather History for KSYF - September, 2013

Change the Weather History Date:

Sunday, September 22, 2013

  Actual Average Record
Temperature  
Mean Temperature 72 °F -  
Max Temperature 90 °F 78 °F 91 °F (2015)
Min Temperature 56 °F 45 °F 51 °F (2014)
Cooling Degree Days 8    
Growing Degree Days 22 (Base 50)    
Moisture  
Dew Point 49 °F    
Average Humidity 53    
Maximum Humidity 89    
Minimum Humidity 16    
Precipitation  
Precipitation 0.00 in - - ()
Sea Level Pressure  
Sea Level Pressure 29.70 in    
Wind  
Wind Speed 12 mph (SSE)    
Max Wind Speed 29 mph    
Max Gust Speed 37 mph    
Visibility 10 miles    
Events      
Averages and records for this station are not official NWS values.
T = Trace of Precipitation, MM = Missing Value Source: NWS Daily Summary

Daily Weather History Graph

Daily Weather History Graph

Search for Another Location

Airport or City:

Trip Planner

Search our weather history database for the weather conditions in past years. The results will help you decide how hot, cold, wet, or windy it might be!

Date:

Astronomy

Sep. 22, 2013 Rise Set
Actual Time 7:35 AM CDT 7:43 PM CDT
Civil Twilight 7:08 AM CDT 8:10 PM CDT
Nautical Twilight 6:36 AM CDT 8:42 PM CDT
Astronomical Twilight 6:04 AM CDT 9:14 PM CDT
Moon 9:35 PM CDT 10:56 AM CDT
Length of Visible Light 13h 02m
Length of Day
12h 08m
Waning Gibbous, 88% of the Moon is Illuminated
Sep 22
Waning Gibbous
Sep 26
Last Quarter
Oct 4
New
Oct 11
First Quarter
Oct 18
Full

Hourly Weather History & Observations

Time (CDT) Temp. Dew Point Humidity Pressure Visibility Wind Dir Wind Speed Gust Speed Precip Events Conditions
12:15 AM 66.2 °F 53.6 °F 64% 29.81 in 10.0 mi South 8.1 mph 24.2 mph N/A   Clear
12:35 AM 65.5 °F 53.6 °F 65% 29.81 in 10.0 mi South 4.6 mph 24.2 mph N/A   Clear
12:55 AM 64.6 °F 53.6 °F 68% 29.80 in 10.0 mi Calm Calm - N/A   Clear
1:15 AM 64.2 °F 53.6 °F 68% 29.79 in 10.0 mi Calm Calm - N/A   Clear
1:35 AM 63.1 °F 53.6 °F 71% 29.79 in 10.0 mi South 17.3 mph 23.0 mph N/A   Clear
1:55 AM 62.8 °F 53.8 °F 72% 29.79 in 10.0 mi South 9.2 mph - N/A   Clear
2:15 AM 62.2 °F 53.8 °F 74% 29.80 in 10.0 mi South 8.1 mph - N/A   Clear
2:35 AM 61.7 °F 53.8 °F 75% 29.79 in 10.0 mi South 4.6 mph - N/A   Clear
2:55 AM 61.7 °F 54.0 °F 76% 29.79 in 10.0 mi SW 4.6 mph - N/A   Clear
3:15 AM 60.4 °F 53.8 °F 79% 29.78 in 10.0 mi Calm Calm - N/A   Clear
3:35 AM 60.4 °F 54.0 °F 79% 29.78 in 10.0 mi South 9.2 mph - N/A   Clear
3:55 AM 59.9 °F 54.0 °F 81% 29.77 in 10.0 mi South 9.2 mph - N/A   Clear
4:15 AM 59.5 °F 53.8 °F 81% 29.77 in 10.0 mi SW 5.8 mph - N/A   Clear
4:35 AM 58.6 °F 53.6 °F 83% 29.76 in 10.0 mi South 4.6 mph - N/A   Clear
4:55 AM 57.6 °F 53.1 °F 85% 29.76 in 10.0 mi South 6.9 mph - N/A   Clear
5:15 AM 57.6 °F 53.2 °F 85% 29.76 in 10.0 mi South 5.8 mph - N/A   Clear
5:35 AM 57.2 °F 53.2 °F 87% 29.76 in 10.0 mi South 8.1 mph - N/A   Clear
5:55 AM 56.7 °F 53.1 °F 88% 29.76 in 10.0 mi South 6.9 mph - N/A   Clear
6:15 AM 57.2 °F 53.4 °F 87% 29.75 in 10.0 mi SSE 4.6 mph - N/A   Clear
6:35 AM 56.5 °F 52.9 °F 88% 29.74 in 10.0 mi SSE 6.9 mph - N/A   Clear
6:55 AM 56.3 °F 52.9 °F 88% 29.74 in 10.0 mi South 6.9 mph - N/A   Clear
7:15 AM 56.7 °F 53.4 °F 89% 29.75 in 10.0 mi South 8.1 mph - N/A   Clear
7:35 AM 57.0 °F 53.4 °F 88% 29.76 in 10.0 mi South 8.1 mph - N/A   Clear
7:55 AM 57.2 °F 53.8 °F 88% 29.76 in 10.0 mi SSE 4.6 mph - N/A   Clear
8:15 AM 57.6 °F 54.0 °F 88% 29.76 in 10.0 mi SSE 8.1 mph - N/A   Clear
8:35 AM 58.5 °F 54.1 °F 86% 29.75 in 10.0 mi SSE 12.7 mph - N/A   Clear
8:55 AM 59.9 °F 54.7 °F 83% 29.75 in 10.0 mi SSE 13.8 mph - N/A   Clear
9:15 AM 61.7 °F 55.0 °F 79% 29.76 in 10.0 mi South 11.5 mph - N/A   Clear
9:35 AM 63.5 °F 55.4 °F 75% 29.76 in 10.0 mi South 10.4 mph - N/A   Clear
9:55 AM 65.1 °F 55.6 °F 71% 29.76 in 10.0 mi SSW 8.1 mph - N/A   Clear
10:15 AM 67.6 °F 56.3 °F 67% 29.76 in 10.0 mi South 9.2 mph - N/A   Clear
10:35 AM 69.1 °F 56.1 °F 63% 29.76 in 10.0 mi South 6.9 mph - N/A   Clear
10:55 AM 71.2 °F 56.3 °F 59% 29.75 in 10.0 mi South 8.1 mph - N/A   Clear
11:15 AM 73.0 °F 55.8 °F 55% 29.75 in 10.0 mi South 9.2 mph - N/A   Clear
11:35 AM 75.6 °F 55.6 °F 50% 29.74 in 10.0 mi SSE 12.7 mph - N/A   Clear
11:55 AM 77.2 °F 54.7 °F 46% 29.73 in 10.0 mi South 12.7 mph - N/A   Clear
12:15 PM 77.4 °F 54.1 °F 44% 29.73 in 10.0 mi SSE 15.0 mph - N/A   Clear
12:35 PM 78.4 °F 53.8 °F 42% 29.72 in 10.0 mi SSE 15.0 mph - N/A   Clear
12:55 PM 79.9 °F 51.8 °F 38% 29.71 in 10.0 mi South 15.0 mph - N/A   Clear
1:15 PM 81.0 °F 51.8 °F 36% 29.71 in 10.0 mi SSE 15.0 mph 21.9 mph N/A   Clear
1:35 PM 82.9 °F 50.9 °F 33% 29.71 in 10.0 mi SSE 17.3 mph 24.2 mph N/A   Clear
1:55 PM 84.2 °F 49.8 °F 30% 29.69 in 10.0 mi SSE 17.3 mph - N/A   Clear
2:15 PM 85.6 °F 49.8 °F 29% 29.68 in 10.0 mi SSE 21.9 mph 27.6 mph N/A   Clear
2:35 PM 86.2 °F 49.3 °F 28% 29.67 in 10.0 mi South 19.6 mph 28.8 mph N/A   Clear
2:55 PM 86.7 °F 48.7 °F 27% 29.65 in 10.0 mi SSE 23.0 mph 28.8 mph N/A   Clear
3:15 PM 87.1 °F 46.4 °F 24% 29.65 in 10.0 mi South 19.6 mph 27.6 mph N/A   Clear
3:35 PM 88.2 °F 46.8 °F 24% 29.63 in 10.0 mi SSE 23.0 mph 28.8 mph N/A   Clear
3:55 PM 89.2 °F 43.7 °F 20% 29.62 in 10.0 mi South 24.2 mph 28.8 mph N/A   Clear
4:15 PM 89.6 °F 44.8 °F 21% 29.61 in 10.0 mi SSE 23.0 mph 29.9 mph N/A   Clear
4:35 PM 89.4 °F 44.4 °F 21% 29.60 in 10.0 mi SSE 25.3 mph 32.2 mph N/A   Clear
4:55 PM 88.9 °F 40.1 °F 18% 29.60 in 10.0 mi SSE 25.3 mph 36.8 mph N/A   Scattered Clouds
5:15 PM 88.9 °F 36.5 °F 16% 29.59 in 10.0 mi South 27.6 mph 32.2 mph N/A   Clear
5:35 PM 88.0 °F 37.4 °F 17% 29.59 in 10.0 mi SSE 28.8 mph 35.7 mph N/A   Clear
5:55 PM 86.5 °F 39.0 °F 19% 29.58 in 10.0 mi SSE 28.8 mph 34.5 mph N/A   Clear
6:15 PM 84.2 °F 39.7 °F 21% 29.59 in 10.0 mi SSE 25.3 mph 36.8 mph N/A   Clear
6:35 PM 84.0 °F 39.9 °F 21% 29.59 in 10.0 mi SSE 27.6 mph 34.5 mph N/A   Clear
6:55 PM 82.4 °F 39.6 °F 22% 29.59 in 10.0 mi SSE 24.2 mph 31.1 mph N/A   Clear
7:15 PM 80.1 °F 39.7 °F 24% 29.59 in 10.0 mi SSE 21.9 mph 28.8 mph N/A   Clear
7:35 PM 78.4 °F 40.8 °F 26% 29.59 in 10.0 mi SSE 20.7 mph - N/A   Clear
7:55 PM 77.2 °F 41.2 °F 28% 29.59 in 10.0 mi SSE 20.7 mph - N/A   Clear
8:15 PM 76.1 °F 42.8 °F 30% 29.59 in 10.0 mi SSE 21.9 mph 32.2 mph N/A   Clear
8:35 PM 75.2 °F 43.0 °F 32% 29.60 in 10.0 mi SSE 26.5 mph 34.5 mph N/A   Clear
8:55 PM 74.3 °F 41.9 °F 31% 29.61 in 10.0 mi SSE 27.6 mph 33.4 mph N/A   Clear
9:15 PM 72.7 °F 41.0 °F 32% 29.61 in 10.0 mi SSE 24.2 mph 31.1 mph N/A   Clear
9:35 PM 72.1 °F 39.0 °F 30% 29.62 in 10.0 mi SSE 21.9 mph 32.2 mph N/A   Clear
9:55 PM 71.1 °F 39.2 °F 31% 29.62 in 10.0 mi SSE 21.9 mph 28.8 mph N/A   Clear
10:15 PM 70.0 °F 39.6 °F 33% 29.62 in 10.0 mi SSE 23.0 mph 28.8 mph N/A   Clear
10:35 PM 69.6 °F 43.7 °F 39% 29.62 in 10.0 mi SSE 23.0 mph - N/A   Clear
10:55 PM 68.9 °F 46.4 °F 44% 29.62 in 10.0 mi SSE 23.0 mph 29.9 mph N/A   Clear
11:15 PM 68.4 °F 47.3 °F 47% 29.63 in 10.0 mi SSE 25.3 mph - N/A   Clear
11:35 PM 67.6 °F 46.4 °F 46% 29.62 in 10.0 mi SSE 23.0 mph 32.2 mph N/A   Clear
11:55 PM 67.3 °F 45.7 °F 46% 29.62 in 10.0 mi SSE 21.9 mph 35.7 mph N/A   Clear